Weather WX

World > North America > United States > North Dakota

Joliette, North Dakota Regional Weather

Lat: 48.82N, Lon: 97.23W
Wx Zone: NDZ008
Warning FLW WEATHER ALERT - (More Info. Click Here) Warning
Feedback

Joliette, ND Regional Weather

Expires:201907190600;;285450
ASUS43 KBIS 190510
RWRND 

NORTH DAKOTA REGIONAL WEATHER ROUNDUP
NATIONAL WEATHER SERVICE BISMARCK ND
1200 AM CDT FRI JUL 19 2019

NOTE: "FAIR" INDICATES FEW OR NO CLOUDS BELOW 12,000 FEET WITH NO
SIGNIFICANT WEATHER AND/OR OBSTRUCTIONS TO VISIBILITY.



NDZ004>008-012>016-024-026-027-054-190600-
NORTHEAST NORTH DAKOTA
  
CITY           SKY/WX    TMP DP  RH WIND       PRES   REMARKS
GRAND FORKS    CLEAR     65  58  78 SW8       29.62R                  
GRND FRKS AFB  CLEAR     65  59  81 SW7       29.63S                  
DEVILS LAKE    CLEAR     71  62  73 S8        29.65S                  
$$
 

SKY/WX - Weather  TMP - Temperature  DP - Dew Point  RH - Relative Humidity
WIND - Wind Direction/Speed PRES - Barometric Pressure VSB - Visibility
WCI - Wind Chill Index E13G22 Wind - East Wind 13 mph/Gusts of 22 mph